�N����,����,�~����,�C��,���x,�C��,����,���ϕ���,�ő�u�ԕ���,�ő厞����,���˗�,�I�_���x,�n�����x,�ő啗���N��,DTYPE
"18/06/06","00:10",0.6,19.2,94.0,1007.8,264.3,0.6,1.1,322.8,0.00,18.3,20.3,"00:08:40",1
"18/06/06","00:20",0.8,19.2,94.2,1007.8,266.0,0.2,0.6,314.1,0.00,18.3,20.2,"00:10:40",1
"18/06/06","00:30",0.6,19.2,94.5,1007.8,259.7,0.2,0.8,245.8,0.00,18.3,20.3,"00:28:00",1
"18/06/06","00:40",0.4,19.2,94.6,1008.3,241.3,0.6,1.0,238.0,0.00,18.4,20.5,"00:32:00",1
"18/06/06","00:50",0.6,19.1,94.5,1008.1,203.8,0.3,1.3,191.2,0.00,18.2,20.2,"00:43:52",1
"18/06/06","01:00",0.6,19.0,94.9,1007.6,218.1,0.3,1.3,191.1,0.00,18.2,20.2,"00:58:26",1
"18/06/06","01:10",0.6,18.3,94.3,1007.6,321.6,0.3,1.2,63.5,0.00,17.4,20.2,"01:04:00",1
"18/06/06","01:20",0.6,18.0,94.6,1007.6,207.3,0.3,0.9,242.7,0.00,17.2,20.0,"01:19:20",1
"18/06/06","01:30",0.6,18.1,95.0,1007.6,272.7,0.8,1.2,271.5,0.00,17.3,20.2,"01:22:16",1
"18/06/06","01:40",0.6,18.1,95.1,1007.6,293.3,0.7,1.1,324.0,0.00,17.3,20.1,"01:31:12",1
"18/06/06","01:50",0.8,18.1,95.2,1007.4,287.4,0.6,1.1,333.3,0.00,17.4,20.0,"01:40:08",1
"18/06/06","02:00",0.6,18.0,95.3,1007.4,285.6,0.8,1.4,301.1,0.00,17.3,20.0,"01:55:12",1
"18/06/06","02:10",0.8,17.9,95.5,1007.6,284.6,0.8,1.4,305.9,0.00,17.2,19.9,"02:05:36",1
"18/06/06","02:20",0.6,17.8,95.5,1007.1,287.5,0.8,1.3,316.8,0.00,17.1,19.9,"02:13:20",1
"18/06/06","02:30",0.8,17.8,95.7,1006.9,298.6,0.7,1.1,316.4,0.00,17.1,19.9,"02:29:04",1
"18/06/06","02:40",0.8,17.8,95.8,1006.9,303.9,1.0,1.4,312.1,0.00,17.2,19.9,"02:35:20",1
"18/06/06","02:50",0.8,17.9,96.0,1006.9,294.8,0.8,1.3,324.2,0.00,17.3,19.9,"02:44:40",1
"18/06/06","03:00",0.8,18.0,96.0,1007.1,283.3,0.8,1.3,283.2,0.00,17.4,19.7,"02:57:52",1
"18/06/06","03:10",0.8,18.1,96.0,1006.9,288.8,0.7,1.2,259.3,0.00,17.5,19.9,"03:02:32",1
"18/06/06","03:20",0.8,18.1,96.1,1006.7,282.0,0.7,1.4,302.9,0.00,17.5,19.8,"03:10:02",1
"18/06/06","03:30",0.8,18.1,96.1,1006.9,290.9,0.8,1.2,329.3,0.00,17.5,19.6,"03:23:20",1
"18/06/06","03:40",0.8,18.2,96.2,1007.1,304.0,0.8,1.6,308.7,0.00,17.6,19.7,"03:31:36",1
"18/06/06","03:50",1.0,18.2,96.3,1007.1,286.8,1.0,1.6,246.8,0.00,17.6,19.7,"03:49:30",1
"18/06/06","04:00",0.8,18.2,96.3,1007.1,291.3,0.8,1.4,307.7,0.00,17.6,19.7,"03:59:06",1
"18/06/06","04:10",0.8,18.2,96.3,1006.9,278.5,1.0,1.6,302.4,0.00,17.6,19.7,"04:00:58",1
"18/06/06","04:20",1.0,18.2,96.4,1006.9,279.5,0.8,1.7,335.6,0.00,17.7,19.8,"04:15:44",1
"18/06/06","04:30",0.8,18.2,96.4,1007.1,284.6,0.6,1.1,308.9,0.00,17.7,19.6,"04:27:36",1
"18/06/06","04:40",1.0,18.2,96.5,1007.1,296.6,0.7,1.0,308.9,0.00,17.7,19.6,"04:31:20",1
"18/06/06","04:50",1.0,18.2,96.5,1006.9,265.8,0.7,1.0,249.1,0.00,17.7,19.3,"04:42:48",1
"18/06/06","05:00",0.8,18.2,96.6,1006.9,288.2,0.6,0.9,297.7,0.00,17.7,19.5,"04:50:16",1
"18/06/06","05:10",1.0,18.2,96.6,1006.9,312.5,0.8,1.3,328.1,0.00,17.7,19.7,"05:09:12",1
"18/06/06","05:20",1.0,18.2,96.8,1007.1,309.5,0.7,1.1,315.8,0.00,17.7,19.5,"05:11:44",1
"18/06/06","05:30",1.0,18.3,96.8,1006.7,304.4,0.7,1.1,323.5,0.00,17.8,19.4,"05:20:08",1
"18/06/06","05:40",1.0,18.3,96.9,1006.9,292.0,0.5,1.0,307.3,0.00,17.8,19.6,"05:39:52",1
"18/06/06","05:50",0.8,18.3,96.8,1006.9,309.5,1.0,1.3,320.4,0.00,17.8,19.6,"05:41:54",1
"18/06/06","06:00",1.0,18.4,96.9,1007.1,277.4,0.5,0.8,304.6,0.00,17.9,19.6,"05:50:56",1
"18/06/06","06:10",0.8,18.4,96.8,1006.9,261.5,0.5,0.8,240.3,0.00,17.9,19.4,"06:05:36",1
"18/06/06","06:20",1.0,18.5,96.9,1007.4,279.6,0.5,0.8,299.1,0.00,18.0,19.6,"06:14:28",1
"18/06/06","06:30",0.8,18.6,97.0,1007.1,265.9,0.2,0.5,128.4,0.00,18.2,19.3,"06:20:08",1
"18/06/06","06:40",0.6,18.6,97.0,1007.1,258.5,0.5,0.8,250.6,0.00,18.2,19.3,"06:30:16",1
"18/06/06","06:50",0.8,18.6,96.8,1007.6,316.9,0.8,1.4,338.5,0.00,18.1,19.3,"06:45:12",1
"18/06/06","07:00",0.6,18.6,97.0,1007.4,258.0,0.3,1.4,305.2,0.00,18.2,19.5,"06:50:56",1
"18/06/06","07:10",0.6,18.7,97.0,1006.9,289.1,0.3,0.8,287.0,0.01,18.3,19.6,"07:03:38",1
"18/06/06","07:20",0.6,18.7,96.9,1006.9,329.4,0.3,1.1,349.6,0.01,18.2,19.5,"07:18:32",1
"18/06/06","07:30",0.6,18.7,96.9,1007.1,328.2,0.7,1.3,314.8,0.01,18.2,19.6,"07:21:36",1
"18/06/06","07:40",0.6,18.8,97.0,1007.4,301.9,0.8,1.3,322.7,0.02,18.4,19.6,"07:31:28",1
"18/06/06","07:50",0.6,18.9,96.8,1007.4,317.3,0.6,1.6,315.0,0.02,18.4,19.5,"07:48:32",1
"18/06/06","08:00",0.6,18.9,97.1,1007.4,274.3,0.5,0.9,274.9,0.02,18.5,19.6,"07:50:16",1
"18/06/06","08:10",0.4,18.9,96.9,1007.6,277.3,0.8,1.3,299.9,0.01,18.4,19.5,"08:02:16",1
"18/06/06","08:20",0.6,19.0,97.1,1007.6,283.7,0.2,0.6,296.9,0.01,18.6,19.5,"08:13:12",1
"18/06/06","08:30",0.4,18.9,97.0,1007.6,256.3,0.2,0.6,288.6,0.01,18.5,19.6,"08:21:12",1
"18/06/06","08:40",0.6,19.0,97.2,1007.8,315.5,0.7,1.6,336.0,0.02,18.6,19.7,"08:33:52",1
"18/06/06","08:50",0.4,19.0,96.9,1007.6,161.4,0.1,0.5,348.6,0.02,18.5,19.7,"08:49:12",1
"18/06/06","09:00",0.6,19.1,96.9,1007.1,216.0,0.2,0.5,211.3,0.03,18.6,19.6,"08:54:24",1
"18/06/06","09:10",0.4,19.2,97.0,1007.6,237.7,0.2,0.8,198.9,0.03,18.8,19.8,"09:05:12",1
"18/06/06","09:20",0.6,19.4,97.0,1006.9,227.5,0.3,1.0,204.1,0.05,19.0,19.5,"09:13:04",1
"18/06/06","09:30",0.4,19.5,97.3,1007.4,224.6,0.5,1.2,228.0,0.04,19.1,19.6,"09:22:56",1
"18/06/06","09:40",0.6,19.5,96.7,1007.4,173.1,0.2,1.0,143.5,0.05,19.0,19.7,"09:31:04",1
"18/06/06","09:50",0.4,19.4,96.8,1007.1,252.3,0.5,1.1,235.0,0.03,18.9,19.9,"09:46:32",1
"18/06/06","10:00",0.4,19.4,96.7,1007.4,278.6,0.6,1.2,294.5,0.03,18.9,19.7,"09:50:56",1
"18/06/06","10:10",0.4,19.3,96.9,1007.6,236.0,0.7,1.6,233.4,0.03,18.8,19.8,"10:04:24",1
"18/06/06","10:20",0.4,19.5,97.1,1007.6,212.0,0.6,1.4,187.7,0.04,19.1,19.7,"10:10:24",1
"18/06/06","10:30",0.6,19.4,96.9,1007.8,225.5,0.6,1.1,228.6,0.04,18.9,19.6,"10:23:12",1
"18/06/06","10:40",0.4,19.5,96.8,1007.8,238.6,0.7,1.4,227.4,0.05,19.0,19.9,"10:35:52",1
"18/06/06","10:50",0.4,19.5,96.7,1007.4,231.3,0.5,1.0,203.5,0.04,19.0,19.7,"10:45:20",1
"18/06/06","11:00",0.6,19.5,96.8,1006.9,146.3,0.3,1.2,145.1,0.04,19.0,19.8,"10:53:04",1
"18/06/06","11:10",0.4,19.5,97.0,1006.9,150.5,0.6,1.7,130.4,0.07,19.1,20.1,"11:05:12",1
"18/06/06","11:20",0.4,19.9,96.7,1006.7,158.2,0.8,1.6,192.6,0.11,19.4,20.1,"11:18:56",1
"18/06/06","11:30",0.4,20.1,96.0,1006.2,170.8,0.5,1.3,194.0,0.07,19.5,20.0,"11:21:28",1
"18/06/06","11:40",0.2,20.0,96.0,1006.4,265.9,0.3,0.6,278.2,0.05,19.4,20.0,"11:32:40",1
"18/06/06","11:50",0.4,20.0,95.9,1006.4,186.4,0.3,1.4,227.8,0.06,19.4,19.9,"11:40:48",1
"18/06/06","12:00",0.2,20.1,95.8,1006.7,101.6,0.2,1.0,117.5,0.05,19.4,20.1,"11:56:00",1
"18/06/06","12:10",0.2,20.0,95.5,1006.4,267.6,0.2,0.9,17.0,0.07,19.3,20.1,"12:04:24",1
"18/06/06","12:20",0.4,20.2,95.7,1006.0,176.1,0.5,0.9,191.9,0.07,19.5,20.3,"12:11:20",1
"18/06/06","12:30",0.2,20.2,95.3,1005.7,165.2,0.7,1.7,195.9,0.08,19.5,20.1,"12:28:08",1
"18/06/06","12:40",0.2,20.3,95.2,1005.5,138.8,0.7,1.7,137.6,0.08,19.5,20.2,"12:31:28",1
"18/06/06","12:50",0.4,20.6,95.6,1005.7,119.9,0.6,1.1,178.7,0.12,19.9,20.2,"12:40:08",1
"18/06/06","13:00",0.2,20.9,94.4,1005.2,116.0,0.6,1.3,122.1,0.19,20.0,20.1,"12:54:56",1
"18/06/06","13:10",0.2,20.9,95.1,1005.5,115.8,0.6,1.3,125.3,0.16,20.1,20.3,"13:02:24",1
"18/06/06","13:20",0.2,20.8,94.7,1005.2,123.2,0.6,1.4,107.4,0.11,20.0,20.3,"13:18:16",1
"18/06/06","13:30",0.2,20.9,93.7,1005.2,54.5,0.5,1.1,72.5,0.08,19.9,20.3,"13:20:08",1
"18/06/06","13:40",0.0,21.0,93.6,1005.5,112.8,0.2,0.8,138.0,0.06,20.0,20.3,"13:33:12",1
"18/06/06","13:50",0.0,21.0,93.4,1005.7,39.9,0.2,0.8,98.6,0.05,19.9,20.5,"13:46:48",1
"18/06/06","14:00",0.0,20.8,92.9,1005.7,141.3,0.2,0.9,181.9,0.02,19.6,20.4,"13:56:08",1
"18/06/06","14:10",0.0,20.9,93.5,1005.7,312.4,0.3,1.2,344.6,0.02,19.9,20.5,"14:02:08",1
"18/06/06","14:20",0.2,20.9,93.2,1006.0,299.0,0.3,0.9,329.9,0.03,19.8,20.5,"14:18:32",1
"18/06/06","14:30",0.2,20.8,93.0,1006.2,302.7,0.5,1.0,334.2,0.03,19.7,20.5,"14:27:12",1
"18/06/06","14:40",0.2,21.0,94.0,1006.0,314.2,0.2,0.5,336.8,0.06,20.0,20.5,"14:30:08",1
"18/06/06","14:50",0.2,20.9,93.3,1006.2,304.1,0.5,0.9,345.6,0.08,19.8,20.6,"14:49:36",1
"18/06/06","15:00",0.2,20.9,92.8,1006.4,308.1,0.3,1.0,347.4,0.07,19.7,20.5,"14:51:52",1
"18/06/06","15:10",0.2,20.9,93.5,1006.2,313.2,0.5,1.0,333.7,0.05,19.9,20.4,"15:08:32",1
"18/06/06","15:20",0.2,20.8,93.5,1006.0,311.8,0.5,1.6,304.7,0.04,19.8,20.5,"15:13:28",1
"18/06/06","15:30",0.0,20.8,93.6,1006.2,299.2,0.2,0.6,267.1,0.03,19.8,20.5,"15:21:52",1
"18/06/06","15:40",0.2,21.0,93.9,1006.9,230.4,0.2,0.6,235.2,0.03,20.0,20.5,"15:31:36",1
"18/06/06","15:50",0.2,20.9,93.7,1006.4,316.3,0.6,1.4,335.6,0.03,19.9,20.7,"15:48:00",1
"18/06/06","16:00",0.2,21.0,93.7,1006.4,339.9,0.3,1.1,306.4,0.04,20.0,20.5,"15:50:56",1
"18/06/06","16:10",0.2,21.0,93.3,1006.0,266.9,0.3,0.8,233.1,0.04,19.9,20.7,"16:00:40",1
"18/06/06","16:20",0.2,20.9,94.2,1006.0,237.7,0.1,0.6,225.8,0.04,20.0,20.6,"16:14:16",1
"18/06/06","16:30",0.0,20.9,93.5,1006.0,217.7,0.2,0.8,237.1,0.04,19.9,20.4,"16:27:36",1
"18/06/06","16:40",0.2,21.0,93.6,1005.7,270.9,0.3,0.9,318.0,0.03,20.0,20.6,"16:35:44",1
"18/06/06","16:50",0.2,20.9,94.0,1005.7,284.8,0.3,0.8,247.2,0.03,19.9,20.6,"16:43:12",1
"18/06/06","17:00",0.0,20.9,94.0,1005.7,305.7,0.5,0.8,292.5,0.03,19.9,20.5,"16:51:52",1
"18/06/06","17:10",0.2,20.8,93.6,1005.7,297.3,0.2,0.6,330.5,0.03,19.8,20.5,"17:00:48",1
"18/06/06","17:20",0.2,20.9,94.2,1006.0,251.0,0.3,1.2,259.3,0.04,20.0,20.7,"17:17:20",1
"18/06/06","17:30",0.0,20.8,94.0,1006.0,239.9,0.6,1.2,231.7,0.03,19.8,20.6,"17:23:28",1
"18/06/06","17:40",0.2,20.7,93.9,1005.7,224.6,0.6,1.2,232.6,0.01,19.7,20.5,"17:32:00",1
"18/06/06","17:50",0.0,20.8,94.2,1006.0,327.1,0.2,0.6,339.8,0.01,19.9,20.5,"17:48:56",1
"18/06/06","18:00",0.2,20.6,94.0,1006.0,275.4,0.2,0.5,336.3,0.00,19.6,20.5,"17:53:04",1
"18/06/06","18:10",0.0,20.6,94.3,1006.0,51.3,0.3,0.9,55.4,0.00,19.7,20.7,"18:08:08",1
"18/06/06","18:20",0.0,20.6,94.3,1005.5,171.3,0.2,1.3,139.5,0.00,19.7,20.6,"18:19:52",1
"18/06/06","18:30",0.2,20.6,94.7,1005.7,211.1,0.5,1.2,161.2,0.00,19.8,20.4,"18:20:08",1
"18/06/06","18:40",0.0,20.5,94.7,1006.2,300.6,0.3,0.9,259.9,0.00,19.7,20.5,"18:38:08",1
"18/06/06","18:50",0.0,20.4,95.0,1006.0,312.9,0.3,0.6,316.2,0.00,19.6,20.5,"18:46:48",1
"18/06/06","19:00",0.0,20.4,95.2,1005.7,278.1,0.5,0.9,302.5,0.00,19.6,20.3,"18:52:08",1
"18/06/06","19:10",0.0,20.4,95.2,1005.7,277.1,0.5,1.2,304.6,0.00,19.6,20.5,"19:08:00",1
"18/06/06","19:20",0.2,20.4,95.4,1006.0,327.7,1.0,2.0,314.8,0.00,19.7,20.5,"19:13:44",1
"18/06/06","19:30",0.0,20.3,95.4,1006.2,315.2,0.3,0.9,337.9,0.00,19.6,20.5,"19:20:08",1
"18/06/06","19:40",0.0,20.2,95.5,1006.2,295.9,0.5,1.0,320.8,0.00,19.5,20.2,"19:38:16",1
"18/06/06","19:50",0.0,20.0,95.7,1006.4,306.5,0.8,1.4,335.7,0.00,19.3,20.6,"19:43:28",1
"18/06/06","20:00",0.2,20.0,95.8,1006.9,291.8,0.7,1.0,305.9,0.00,19.3,20.2,"19:51:12",1
"18/06/06","20:10",0.0,19.9,95.8,1006.4,289.1,0.7,1.4,320.0,0.00,19.2,20.2,"20:09:12",1
"18/06/06","20:20",0.0,19.8,96.0,1006.9,268.1,0.7,1.1,323.7,0.00,19.2,20.4,"20:10:08",1
"18/06/06","20:30",0.2,19.6,96.0,1006.9,270.2,0.6,1.4,245.1,0.00,19.0,20.3,"20:23:36",1
"18/06/06","20:40",0.0,19.6,96.2,1007.4,281.1,0.6,1.1,321.1,0.00,19.0,20.2,"20:32:32",1
"18/06/06","20:50",0.2,19.6,96.3,1007.1,277.4,0.5,0.8,315.4,0.00,19.0,20.3,"20:45:04",1
"18/06/06","21:00",0.0,19.4,96.3,1007.4,296.5,0.8,2.0,319.2,0.00,18.8,20.3,"20:57:36",1
"18/06/06","21:10",0.2,19.5,96.5,1007.4,303.0,1.0,1.6,328.4,0.00,19.0,20.1,"21:07:44",1
"18/06/06","21:20",0.2,19.4,96.4,1007.8,316.3,1.5,2.4,317.9,0.00,18.9,20.3,"21:12:08",1
"18/06/06","21:30",0.0,19.4,96.5,1007.6,309.5,1.1,2.4,328.5,0.00,18.9,20.1,"21:21:52",1
"18/06/06","21:40",0.2,19.5,96.5,1007.4,296.7,0.2,0.9,318.2,0.00,19.0,20.1,"21:32:32",1
"18/06/06","21:50",0.2,19.4,96.6,1007.4,237.3,0.2,0.5,205.9,0.00,18.9,20.1,"21:48:16",1
"18/06/06","22:00",0.0,19.4,96.7,1007.1,300.8,0.6,1.1,319.6,0.00,18.9,19.9,"21:54:00",1
"18/06/06","22:10",0.2,19.5,96.6,1007.6,319.5,0.7,1.1,326.5,0.00,19.0,20.2,"22:02:32",1
"18/06/06","22:20",0.0,19.5,96.7,1007.1,316.8,0.8,1.3,322.2,0.00,19.0,20.0,"22:12:48",1
"18/06/06","22:30",0.2,19.5,96.8,1007.1,294.4,0.7,1.2,318.6,0.00,19.0,19.9,"22:25:28",1
"18/06/06","22:40",0.0,19.5,96.9,1006.9,270.4,0.6,1.1,251.1,0.00,19.0,19.9,"22:37:36",1
"18/06/06","22:50",0.2,19.4,96.9,1006.9,303.3,1.1,1.7,316.5,0.00,18.9,20.0,"22:41:44",1
"18/06/06","23:00",0.0,19.4,96.9,1007.1,288.4,0.8,1.6,324.1,0.00,18.9,19.9,"22:50:08",1
"18/06/06","23:10",0.2,19.4,96.9,1006.9,320.0,1.3,1.7,307.5,0.00,18.9,20.1,"23:01:52",1
"18/06/06","23:20",0.0,19.3,97.0,1007.1,317.2,0.8,1.6,318.7,0.00,18.9,20.0,"23:10:24",1
"18/06/06","23:30",0.2,19.3,96.9,1007.1,303.0,1.1,1.6,311.8,0.00,18.8,20.1,"23:22:24",1
"18/06/06","23:40",0.0,19.2,97.0,1006.7,314.2,1.1,1.7,326.9,0.00,18.8,20.1,"23:33:20",1
"18/06/06","23:50",0.2,19.2,97.1,1006.9,286.1,0.7,1.0,269.5,0.00,18.8,20.0,"23:43:20",1
"18/06/06","24:00",0.0,19.2,97.1,1006.7,311.5,1.2,1.7,324.7,0.00,18.8,20.0,"23:58:40",1
